TimePDT,TemperatureF,Dew PointF,Humidity,Sea Level PressureIn,VisibilityMPH,Wind Direction,Wind SpeedMPH,Gust SpeedMPH,PrecipitationIn,Events,Conditions,WindDirDegrees,DateUTC
12:56 AM,54.0,48.0,80,30.09,10.0,Calm,Calm,-,N/A,,Clear,0,2012-11-02 07:56:00
1:56 AM,52.0,48.9,89,30.09,10.0,Calm,Calm,-,N/A,,Clear,0,2012-11-02 08:56:00
2:56 AM,52.0,46.9,83,30.08,10.0,Calm,Calm,-,N/A,,Clear,0,2012-11-02 09:56:00
3:56 AM,51.1,46.0,83,30.08,10.0,Calm,Calm,-,N/A,,Clear,0,2012-11-02 10:56:00
4:56 AM,48.9,45.0,86,30.08,10.0,Calm,Calm,-,N/A,,Clear,0,2012-11-02 11:56:00
5:56 AM,50.0,46.0,86,30.08,10.0,Calm,Calm,-,N/A,,Clear,0,2012-11-02 12:56:00
6:56 AM,50.0,45.0,83,30.08,10.0,South,3.5,-,N/A,,Clear,170,2012-11-02 13:56:00
7:56 AM,50.0,46.0,86,30.09,10.0,Calm,Calm,-,N/A,,Clear,0,2012-11-02 14:56:00
8:56 AM,54.0,48.0,80,30.10,10.0,Calm,Calm,-,N/A,,Clear,0,2012-11-02 15:56:00
9:56 AM,57.0,48.9,74,30.11,10.0,NNE,3.5,-,N/A,,Clear,20,2012-11-02 16:56:00
10:56 AM,59.0,50.0,72,30.11,10.0,Calm,Calm,-,N/A,,Clear,0,2012-11-02 17:56:00
11:56 AM,62.1,51.1,67,30.09,10.0,North,4.6,-,N/A,,Clear,10,2012-11-02 18:56:00
12:56 PM,64.0,48.9,58,30.08,10.0,North,8.1,-,N/A,,Clear,350,2012-11-02 19:56:00
1:56 PM,64.9,48.9,56,30.06,10.0,North,6.9,-,N/A,,Clear,350,2012-11-02 20:56:00
2:56 PM,64.9,51.1,61,30.06,10.0,NNW,9.2,-,N/A,,Clear,340,2012-11-02 21:56:00
3:56 PM,64.0,51.1,63,30.06,10.0,NNW,6.9,-,N/A,,Clear,340,2012-11-02 22:56:00
4:56 PM,63.0,51.1,65,30.05,10.0,NNW,4.6,-,N/A,,Clear,330,2012-11-02 23:56:00
5:56 PM,63.0,51.1,65,30.05,10.0,NW,3.5,-,N/A,,Clear,320,2012-11-03 00:56:00
6:56 PM,61.0,50.0,67,30.06,10.0,Calm,Calm,-,N/A,,Clear,0,2012-11-03 01:56:00
7:56 PM,60.1,51.1,72,30.07,10.0,NNW,5.8,-,N/A,,Clear,330,2012-11-03 02:56:00
8:56 PM,57.9,46.9,67,30.08,10.0,NW,3.5,-,N/A,,Clear,310,2012-11-03 03:56:00
9:56 PM,55.9,46.9,72,30.09,10.0,Calm,Calm,-,N/A,,Clear,0,2012-11-03 04:56:00
10:56 PM,55.0,48.9,80,30.10,10.0,Calm,Calm,-,N/A,,Clear,0,2012-11-03 05:56:00
11:56 PM,54.0,48.9,83,30.10,10.0,Calm,Calm,-,N/A,,Clear,0,2012-11-03 06:56:00